Wind_Speed
11 8 6 5 4 8 8 9 9 8 8 10 11 10 12 11 12 15 12 14 11 12 10 8 8 12 14 14 15 15 11 10 11
11 14 11 6 5 7 8 9 9 7 8 9 11 8 10 6 7 11 13 14 9 8 7 8 9 10 12 12 14 15 15 13 13
11 9 12 14 9 7 9 8 8 8 8 8 10 7 7 5 5 7 7 12 5 9 7 9 10 10 11 12 12 14 15 15 15
12 11 10 11 16 14 11 10 10 8 8 8 8 7 7 5 4 8 9 9 9 11 8 9 10 11 9 9 11 13 14 15 15
14 13 12 10 11 13 15 13 11 11 9 8 9 7 5 4 2 2 8 8 6 8 10 9 6 8 10 7 7 9 12 13 14
17 16 14 13 11 11 12 14 12 12 11 10 10 8 5 3 5 2 8 10 3 7 8 7 5 6 7 7 5 5 8 11 12
16 19 18 16 14 14 14 14 13 13 14 14 14 12 8 5 5 3 5 9 5 9 7 7 6 3 5 7 5 4 4 6 9
18 17 21 21 19 17 16 16 16 14 14 15 16 16 14 9 6 4 2 5 2 9 8 7 5 4 5 6 4 2 3 4 7
19 19 18 21 22 21 19 17 18 18 15 15 16 18 18 15 10 8 4 3 3 6 9 7 5 5 5 5 2 2 1 2 6
20 20 19 19 21 22 21 21 20 20 18 16 18 17 19 18 14 12 10 5 3 2 10 9 9 8 10 7 7 5 3 2 7
18 20 22 22 22 22 23 23 23 22 20 21 20 20 21 22 19 16 15 12 6 3 6 14 12 11 11 12 8 7 4 3 8
15 18 20 23 24 25 23 25 24 24 24 23 26 23 22 26 24 21 20 19 13 8 4 15 16 14 12 14 12 8 7 6 7
11 14 17 20 23 25 27 24 26 23 26 27 26 27 27 26 29 25 24 25 19 13 9 11 20 18 15 16 15 12 10 10 7
9 11 12 15 17 21 26 27 28 30 26 26 32 30 31 32 30 31 28 28 24 20 15 15 12 23 20 16 17 15 13 10 9
8 9 10 11 12 15 19 25 27 30 33 32 28 32 35 34 36 32 32 31 30 25 21 22 24 25 21 19 22 19 17 15 12
9 9 10 11 12 13 15 19 24 25 26 32 33 32 29 35 34 37 36 35 34 31 27 22 22 21 24 21 29 22 20 18 16
9 9 10 12 12 13 14 16 18 20 21 22 22 23 24 39 39 38 39 39 37 36 32 27 25 24 27 25 29 28 24 21 17
9 10 11 12 14 14 15 16 17 19 19 18 17 8 12 17 33 43 43 44 42 41 37 32 29 27 29 30 28 34 28 25 24
10 11 11 12 14 14 15 17 19 19 19 21 21 25 23 8 13 21 41 44 48 46 43 38 34 31 29 32 31 36 33 28 24
11 12 13 13 14 15 17 19 21 22 22 23 24 27 28 31 27 22 10 35 52 51 48 43 39 36 32 33 35 33 38 32 28
Wind_Direction
163 162 165 165 152 130 135 130 128 103 108 103 97 88 69 59 34 32 55 85 101 87 65 83 86 80 75 72 73 73 79 84 80
181 169 168 172 172 155 149 149 147 123 123 122 117 107 94 70 58 20 39 86 81 102 78 80 97 99 85 78 76 72 72 79 83
196 196 179 164 165 181 174 165 153 137 135 148 133 124 107 94 49 11 16 52 93 129 90 67 100 111 95 89 79 77 72 79 83
207 206 206 191 169 168 188 184 173 163 150 157 156 143 123 112 44 354 357 21 94 119 106 81 96 109 108 92 90 83 81 83 80
212 213 210 209 209 177 175 196 194 189 180 171 177 172 153 140 135 33 322 0 123 122 119 89 118 130 115 103 99 94 88 89 88
212 218 217 209 214 222 191 186 211 204 197 193 194 190 197 161 167 180 310 348 2 162 138 126 146 130 132 114 123 111 105 96 94
214 216 216 216 215 213 208 194 201 218 206 199 194 203 211 206 193 221 321 340 7 161 155 128 157 155 151 114 116 124 136 123 110
215 214 211 215 215 216 212 202 200 215 233 218 206 203 216 220 215 210 300 350 28 170 160 169 182 176 183 144 103 120 135 151 144
218 216 214 216 215 215 213 211 205 212 214 234 221 215 213 226 225 222 233 304 350 209 182 199 193 235 224 204 214 231 158 159 167
222 221 221 220 221 218 215 212 212 212 215 217 234 226 224 225 227 230 239 250 293 301 207 195 212 239 233 216 207 228 249 219 177
223 225 225 226 227 227 222 219 216 215 216 225 224 228 229 229 234 228 241 250 262 281 240 203 214 224 239 230 233 233 246 235 191
226 227 228 230 230 231 230 227 227 223 218 222 224 230 231 230 233 237 241 257 250 256 255 199 214 220 231 231 222 232 237 224 195
240 232 232 232 231 232 234 234 230 227 229 228 225 224 233 235 231 238 238 249 257 248 242 210 214 217 231 229 217 230 236 229 223
258 252 245 241 236 234 234 237 237 233 233 227 228 227 226 236 234 234 238 244 252 255 243 230 241 220 219 217 214 218 235 232 238
254 257 263 258 252 246 243 239 240 238 239 238 232 230 231 233 236 238 239 243 249 251 245 229 227 227 234 206 207 215 227 240 241
262 271 275 272 268 262 256 251 248 243 244 247 245 241 240 237 239 240 239 241 244 248 245 240 239 235 231 213 200 210 224 239 245
270 272 276 280 278 274 271 267 261 259 253 250 253 258 252 242 243 245 240 239 242 242 242 240 243 242 231 223 207 207 221 229 240
275 278 281 283 283 281 277 274 272 266 253 250 236 238 237 251 243 237 240 241 238 239 239 243 242 244 239 230 215 202 211 222 234
267 271 275 279 283 285 281 277 274 270 262 254 245 236 247 262 247 237 242 237 238 239 238 237 241 239 235 219 218 207 211 214 227
271 271 274 275 280 278 275 274 272 271 268 263 257 250 246 248 253 259 246 241 236 237 238 237 241 234 232 227 218 217 215 212 218
Height
1533 1535 1537 1537 1538 1539 1540 1540 1542 1542 1541 1541 1543 1542 1543 1541 1543 1544 1543 1542 1543 1543 1542 1543 1543 1542 1541 1541 1539 1538 1537 1536 1535
1533 1531 1533 1536 1537 1539 1539 1540 1541 1542 1542 1542 1542 1543 1543 1544 1543 1545 1546 1544 1544 1545 1544 1543 1543 1543 1543 1543 1542 1541 1539 1538 1537
1531 1533 1532 1531 1535 1538 1538 1539 1540 1541 1542 1544 1542 1543 1544 1544 1544 1544 1545 1546 1544 1545 1545 1544 1544 1544 1545 1545 1544 1543 1542 1541 1540
1531 1532 1533 1532 1530 1531 1537 1538 1539 1541 1541 1543 1543 1542 1544 1546 1545 1546 1545 1545 1546 1544 1546 1546 1545 1545 1546 1547 1546 1545 1545 1544 1543
1530 1531 1531 1532 1534 1532 1531 1537 1538 1538 1539 1540 1542 1541 1542 1544 1546 1545 1547 1547 1547 1547 1545 1547 1548 1546 1547 1548 1548 1547 1547 1546 1546
1526 1530 1531 1530 1532 1534 1533 1533 1537 1538 1539 1539 1540 1541 1540 1541 1544 1543 1546 1547 1547 1548 1547 1546 1549 1548 1548 1548 1549 1549 1548 1548 1548
1523 1525 1528 1529 1529 1531 1532 1532 1534 1537 1537 1540 1539 1540 1540 1539 1541 1543 1543 1546 1546 1548 1550 1549 1549 1550 1549 1550 1550 1550 1550 1549 1549
1521 1522 1524 1525 1526 1528 1530 1529 1531 1534 1537 1539 1540 1539 1541 1539 1539 1541 1541 1544 1545 1546 1550 1550 1550 1549 1551 1551 1552 1552 1551 1551 1550
1518 1519 1520 1523 1523 1524 1526 1527 1528 1531 1532 1538 1538 1539 1539 1541 1539 1539 1538 1543 1544 1546 1547 1550 1552 1551 1551 1552 1552 1553 1553 1552 1552
1515 1515 1517 1518 1520 1521 1522 1523 1524 1527 1529 1531 1536 1537 1539 1539 1538 1539 1539 1538 1542 1544 1545 1548 1549 1552 1551 1551 1552 1553 1553 1553 1552
1509 1510 1512 1513 1515 1517 1517 1518 1521 1523 1526 1528 1530 1533 1535 1537 1537 1536 1539 1537 1538 1539 1542 1545 1547 1548 1550 1550 1553 1552 1553 1553 1553
1505 1506 1507 1509 1510 1511 1513 1514 1517 1519 1520 1523 1525 1528 1532 1533 1535 1535 1535 1538 1536 1537 1537 1541 1544 1545 1548 1548 1549 1553 1553 1553 1553
1502 1503 1503 1506 1506 1507 1508 1510 1512 1515 1516 1520 1521 1522 1526 1529 1531 1532 1531 1533 1534 1536 1536 1535 1539 1541 1545 1547 1546 1549 1552 1553 1553
1499 1501 1502 1502 1503 1503 1504 1504 1507 1510 1513 1514 1516 1517 1519 1523 1526 1527 1528 1529 1531 1533 1534 1534 1532 1535 1538 1543 1546 1545 1549 1551 1552
1498 1498 1497 1498 1498 1498 1499 1501 1503 1506 1507 1509 1511 1512 1515 1518 1519 1522 1525 1525 1528 1528 1531 1532 1534 1532 1531 1538 1543 1543 1547 1548 1549
1494 1494 1493 1494 1494 1495 1497 1497 1499 1501 1504 1503 1506 1508 1509 1514 1514 1516 1518 1521 1523 1525 1527 1527 1531 1530 1531 1530 1537 1541 1542 1546 1545
1490 1490 1490 1490 1491 1492 1493 1493 1495 1497 1497 1499 1502 1504 1505 1506 1509 1510 1511 1514 1518 1519 1521 1523 1525 1527 1528 1528 1529 1535 1538 1542 1543
1487 1487 1487 1487 1487 1488 1489 1490 1491 1492 1494 1497 1500 1502 1500 1500 1500 1501 1504 1507 1510 1513 1515 1518 1520 1522 1524 1526 1525 1528 1531 1536 1539
1483 1483 1483 1483 1483 1484 1485 1486 1488 1488 1490 1492 1494 1497 1496 1496 1495 1495 1496 1500 1502 1505 1507 1512 1514 1517 1518 1520 1521 1522 1526 1530 1536
1479 1479 1479 1479 1479 1481 1481 1482 1483 1484 1485 1486 1487 1490 1491 1493 1494 1490 1491 1493 1494 1497 1500 1503 1507 1510 1512 1513 1517 1518 1520 1524 1529